Location: Newark
(53.3469°N, 7.1606°E)
Time: 13:39:42
(UTC+00:00)

N. Korean satellite - Pass Details

Date: 16 November 2019
Orbit: 455 x 506 km, 97.2° (Epoch: 10 December)

Event Time Altitude Azimuth Distance (km) Brightness Sun altitude
Rises 16:28:52 0° 169° (S) 2,557 10.4 -8.2°
Reaches altitude 10° 16:30:55 10° 171° (S) 1,688 9.5 -8.5°
Maximum altitude 16:34:34 74° 257° (WSW) 525 6.9 -9.0°
Drops below altitude 10° 16:38:17 10° 343° (NNW) 1,726 9.3 -9.5°
Sets 16:40:24 0° 346° (NNW) 2,621 10.2 -9.8°
